Location: Nashville
(36.1660°N, 86.7840°W)
Time: 02:27:55
(UTC-06:00)

Altair - All Passes

Search period start: 28 January 2022 00:00
Search period end: 07 February 2022 00:00
Orbit: 1501 x 1683 km, 47.2° (Epoch: 27 January)

Date Brightness Start Highest point End Pass type
(mag) Time Alt. Az. Time Alt. Az. Time Alt. Az.
28 Jan - 00:23:59 10° WSW 00:33:52 78° NNW 00:44:04 10° NE visible
28 Jan - 02:30:27 10° W 02:40:00 46° N 02:49:42 10° ENE visible
28 Jan - 04:36:51 10° WNW 04:46:45 53° NNE 04:56:35 10° E visible
28 Jan - 06:42:03 10° WNW 06:52:13 76° SW 07:02:10 10° SE daylight
28 Jan - 08:48:49 10° W 08:55:52 22° SW 09:02:49 10° S daylight
28 Jan - 21:56:04 10° S 22:04:28 35° SE 22:13:07 10° ENE night (unlit)
28 Jan - 23:58:47 10° WSW 00:08:37 82° NNW 00:18:49 10° NE visible
29 Jan - 02:05:06 10° W 02:14:38 47° N 02:24:21 10° ENE visible
29 Jan - 04:11:34 10° WNW 04:21:24 51° NNE 04:31:14 10° E visible
29 Jan - 06:16:48 10° WNW 06:27:01 81° SW 06:37:02 10° SE visible
29 Jan - 08:23:15 10° WNW 08:30:48 25° SW 08:38:15 10° S daylight
29 Jan - 21:31:17 10° S 21:39:23 31° SE 21:47:42 10° ENE night (unlit)
29 Jan - 23:33:35 10° SW 23:43:23 86° NW 23:53:34 10° ENE night (unlit)
30 Jan - 01:39:44 10° W 01:49:17 48° N 01:59:02 10° ENE visible
30 Jan - 03:46:17 10° WNW 03:56:04 50° NNE 04:05:51 10° E visible
30 Jan - 05:51:34 10° WNW 06:01:48 86° SW 06:11:52 10° SE visible
30 Jan - 07:57:43 10° WNW 08:05:42 27° SW 08:13:35 10° S daylight
30 Jan - 21:06:33 10° S 21:14:18 28° SE 21:22:13 10° ENE visible
30 Jan - 23:08:25 10° SW 23:18:10 89° SE 23:28:19 10° ENE night (unlit)
31 Jan - 01:14:23 10° W 01:23:56 49° NNW 01:33:43 10° ENE visible
31 Jan - 03:21:00 10° WNW 03:30:43 48° NNE 03:40:28 10° E visible
31 Jan - 05:26:20 10° WNW 05:36:34 89° NE 05:46:41 10° SE visible
31 Jan - 07:32:14 10° WNW 07:40:36 30° SW 07:48:51 10° S daylight
31 Jan - 20:41:53 10° S 20:49:13 25° SE 20:56:43 10° ENE visible
31 Jan - 22:43:15 10° SW 22:52:58 84° SE 23:03:04 10° ENE night (unlit)
01 Feb - 00:49:02 10° W 00:58:35 50° NNW 01:08:24 10° ENE visible
01 Feb - 02:55:42 10° WNW 03:05:21 47° N 03:15:04 10° E visible
01 Feb - 05:01:05 10° NW 05:11:20 85° NNE 05:21:28 10° ESE visible
01 Feb - 07:06:49 10° WNW 07:15:30 34° SW 07:24:04 10° S daylight
01 Feb - 20:17:17 10° S 20:24:09 23° SE 20:31:11 10° ENE visible
01 Feb - 22:18:08 10° SW 22:27:46 78° SE 22:37:49 10° ENE night (unlit)
02 Feb - 00:23:42 10° W 00:33:15 52° NNW 00:43:06 10° ENE visible
02 Feb - 02:30:24 10° WNW 02:40:00 46° N 02:49:42 10° E visible
02 Feb - 04:35:51 10° NW 04:46:05 80° NNE 04:56:14 10° ESE visible
02 Feb - 06:41:25 10° WNW 06:50:23 37° SW 06:59:14 10° SSE daylight
02 Feb - 19:52:47 10° SSE 19:59:06 20° SE 20:05:32 10° E visible
02 Feb - 21:53:02 10° SW 22:02:35 73° SE 22:12:33 10° ENE visible
02 Feb - 23:58:23 10° W 00:07:56 53° NNW 00:17:49 10° ENE visible
03 Feb - 02:05:06 10° WNW 02:14:38 46° N 02:24:18 10° ENE visible
03 Feb - 04:10:38 10° NW 04:20:49 76° NNE 04:30:59 10° ESE visible
03 Feb - 06:16:04 10° WNW 06:25:16 41° SW 06:34:21 10° SSE visible
03 Feb - 19:28:23 10° SSE 19:34:03 17° ESE 19:39:48 10° E visible
03 Feb - 21:27:57 10° SW 21:37:25 68° SE 21:47:17 10° ENE visible
03 Feb - 23:33:03 10° W 23:42:37 55° NNW 23:52:31 10° ENE night (unlit)
04 Feb - 01:39:47 10° WNW 01:49:16 45° N 01:58:54 10° ENE visible
04 Feb - 03:45:24 10° NW 03:55:33 72° NNE 04:05:42 10° ESE visible
04 Feb - 05:50:43 10° WNW 06:00:08 44° SW 06:09:26 10° SSE visible
04 Feb - 19:04:10 10° SSE 19:09:00 15° ESE 19:13:56 10° E visible
04 Feb - 21:02:54 10° SW 21:12:15 63° SE 21:22:00 10° ENE visible
04 Feb - 23:07:45 10° W 23:17:19 58° NNW 23:27:14 10° ENE night (unlit)
05 Feb - 01:14:29 10° WNW 01:23:54 44° N 01:33:31 10° ENE visible
05 Feb - 03:20:10 10° NW 03:30:16 68° NNE 03:40:24 10° ESE visible
05 Feb - 05:25:24 10° WNW 05:34:58 49° SW 05:44:29 10° SSE visible
05 Feb - 18:40:11 10° SE 18:43:58 13° ESE 18:47:48 10° E visible
05 Feb - 20:37:53 10° SSW 20:47:07 58° SE 20:56:43 10° ENE visible
05 Feb - 22:42:27 10° WSW 22:52:01 60° NNW 23:01:58 10° ENE visible
06 Feb - 00:49:09 10° WNW 00:58:32 44° N 01:08:08 10° ENE visible
06 Feb - 02:54:56 10° NW 03:04:59 65° NNE 03:15:05 10° ESE visible
06 Feb - 05:00:07 10° WNW 05:09:49 53° SW 05:19:29 10° SSE visible
06 Feb - 07:10:15 10° WSW 07:13:01 11° WSW 07:15:47 10° SW daylight
06 Feb - 18:16:51 10° SE 18:18:57 11° ESE 18:21:02 10° ESE visible
06 Feb - 20:12:54 10° SSW 20:21:59 53° SE 20:31:25 10° ENE visible
06 Feb - 22:17:11 10° WSW 22:26:44 63° NNW 22:36:42 10° NE visible
